| time (UTC) | temp F | wind direction | speed MPH | gust MPH | rain 1hr in | rain 24hr in | rain mn in | humidity % | barometer mb |
| 20260902070532 | 65 | 84 | 1.0 | 2.0 | 0.00 | 0.00 | 0.00 | 77 | |
| 20260902065530 | 64 | 87 | 1.0 | 3.0 | 0.00 | 0.00 | 0.00 | 80 | |
| 20260902064528 | 64 | 95 | 2.0 | 4.0 | 0.00 | 0.00 | 0.00 | 80 | |
| 20260902063526 | 63 | 76 | 1.0 | 3.0 | 0.00 | 0.00 | 0.00 | 81 | |
| 20260902062524 | 62 | 68 | 0.0 | 2.0 | 0.00 | 0.00 | 0.00 | 82 | |
| 20260902061522 | 62 | 90 | 1.0 | 3.0 | 0.00 | 0.00 | 0.00 | 82 | |
| 20260902060520 | 61 | 0.0 | 1.0 | 0.00 | 0.00 | 0.00 | 81 | ||
| 20260902055518 | 61 | 91 | 1.0 | 3.0 | 0.00 | 0.00 | 0.00 | 81 | |
| 20260902054516 | 61 | 95 | 2.0 | 3.0 | 0.00 | 0.00 | 0.00 | 81 | |
| 20260902053614 | 62 | 73 | 1.0 | 3.0 | 0.00 | 0.00 | 0.00 | 81 | |
| 20260902052612 | 62 | 90 | 1.0 | 3.0 | 0.00 | 0.00 | 0.00 | 81 | |
| 20260902051610 | 62 | 84 | 1.0 | 4.0 | 0.00 | 0.00 | 0.00 | 81 | |
| 20260902050608 | 62 | 99 | 3.0 | 4.0 | 0.00 | 0.00 | 0.00 | 81 | |
| 20260902045606 | 62 | 95 | 2.0 | 4.0 | 0.00 | 0.00 | 0.00 | 81 | |
| 20260902044604 | 63 | 95 | 1.0 | 2.0 | 0.00 | 0.00 | 0.00 | 80 | |
| 20260902043602 | 63 | 90 | 2.0 | 4.0 | 0.00 | 0.00 | 0.00 | 80 | |
| 20260902042600 | 64 | 111 | 2.0 | 4.0 | 0.00 | 0.00 | 0.00 | 80 | |
| 20260902041558 | 64 | 0.0 | 1.0 | 0.00 | 0.00 | 0.00 | 80 | ||
| 20260902040556 | 64 | 68 | 1.0 | 2.0 | 0.00 | 0.00 | 0.00 | 80 | |
| 20260902035554 | 64 | 0.0 | 0.0 | 0.00 | 0.00 | 0.00 | 80 | ||
| 20260902034553 | 63 | 0.0 | 1.0 | 0.00 | 0.00 | 0.00 | 80 | ||
| 20260902033550 | 63 | 0.0 | 1.0 | 0.00 | 0.00 | 0.00 | 80 | ||
| 20260902032548 | 63 | 0.0 | 0.0 | 0.00 | 0.00 | 0.00 | 80 | ||
| 20260902031546 | 63 | 0.0 | 1.0 | 0.00 | 0.00 | 0.00 | 80 | ||
| 20260902030544 | 63 | 90 | 0.0 | 2.0 | 0.00 | 0.00 | 0.00 | 80 | |
| 20260902025542 | 63 | 90 | 0.0 | 2.0 | 0.00 | 0.00 | 0.00 | 80 | |
| 20260902024540 | 63 | 45 | 1.0 | 2.0 | 0.00 | 0.00 | 0.00 | 79 | |
| 20260902023539 | 63 | 45 | 0.0 | 2.0 | 0.00 | 0.00 | 0.00 | 79 | |
| 20260902022537 | 63 | 0.0 | 1.0 | 0.00 | 0.00 | 0.00 | 79 | ||
| 20260902021535 | 64 | 73 | 1.0 | 2.0 | 0.00 | 0.00 | 0.00 | 79 | |
| 20260902020613 | 64 | 45 | 2.0 | 2.0 | 0.00 | 0.00 | 0.00 | 78 | |
| 20260902015530 | 64 | 52 | 2.0 | 4.0 | 0.00 | 0.00 | 0.00 | 77 | |
| 20260902014528 | 65 | 97 | 2.0 | 3.0 | 0.00 | 0.00 | 0.00 | 77 | |
| 20260902013527 | 65 | 81 | 3.0 | 4.0 | 0.00 | 0.00 | 0.00 | 76 | |
| 20260902012525 | 66 | 77 | 1.0 | 3.0 | 0.00 | 0.00 | 0.00 | 76 | |
| 20260902011543 | 66 | 49 | 1.0 | 2.0 | 0.00 | 0.00 | 0.00 | 74 | |
| 20260902010520 | 66 | 0.0 | 1.0 | 0.00 | 0.00 | 0.00 | 74 | ||
| 20260902005519 | 67 | 90 | 0.0 | 2.0 | 0.00 | 0.00 | 0.00 | 74 | |
| 20260902004517 | 67 | 0.0 | 0.0 | 0.00 | 0.00 | 0.00 | 75 | ||
| 20260902003516 | 66 | 0.0 | 0.0 | 0.00 | 0.00 | 0.00 | 75 | ||
| 20260902002613 | 66 | 0.0 | 0.0 | 0.00 | 0.00 | 0.00 | 75 | ||
| 20260902001611 | 66 | 0.0 | 1.0 | 0.00 | 0.00 | 0.00 | 76 | ||
| 20260902000609 | 66 | 45 | 2.0 | 2.0 | 0.00 | 0.00 | 0.00 | 76 | |
| 20260901235607 | 66 | 45 | 1.0 | 2.0 | 0.00 | 0.00 | 0.00 | 76 | |
| 20260901234606 | 66 | 64 | 1.0 | 3.0 | 0.00 | 0.00 | 0.00 | 75 | |
| 20260901233604 | 66 | 45 | 1.0 | 2.0 | 0.00 | 0.00 | 0.00 | 75 | |
| 20260901232601 | 66 | 45 | 2.0 | 2.0 | 0.00 | 0.00 | 0.00 | 74 | |
| 20260901231641 | 67 | 45 | 1.0 | 2.0 | 0.00 | 0.00 | 0.00 | 74 | |
| 20260901230617 | 66 | 75 | 0.0 | 2.0 | 0.00 | 0.00 | 0.00 | 74 | |
| 20260901225555 | 66 | 45 | 1.0 | 3.0 | 0.00 | 0.00 | 0.00 | 73 | |
| 20260901224553 | 66 | 45 | 1.0 | 3.0 | 0.00 | 0.00 | 0.00 | 73 | |
| 20260901223611 | 67 | 55 | 1.0 | 2.0 | 0.00 | 0.00 | 0.00 | 73 | |
| 20260901222549 | 67 | 51 | 1.0 | 3.0 | 0.00 | 0.00 | 0.00 | 72 | |
| 20260901221547 | 67 | 45 | 1.0 | 2.0 | 0.00 | 0.00 | 0.00 | 72 | |
| 20260901220545 | 67 | 45 | 2.0 | 2.0 | 0.00 | 0.00 | 0.00 | 71 | |
| 20260901215543 | 67 | 48 | 1.0 | 2.0 | 0.00 | 0.00 | 0.00 | 71 | |
| 20260901214541 | 67 | 0.0 | 2.0 | 0.00 | 0.00 | 0.00 | 71 | ||
| 20260901213539 | 67 | 0.0 | 0.0 | 0.00 | 0.00 | 0.00 | 71 | ||
| 20260901212537 | 67 | 0.0 | 0.0 | 0.00 | 0.00 | 0.00 | 71 | ||
| 20260901211535 | 67 | 0.0 | 0.0 | 0.00 | 0.00 | 0.00 | 71 | ||
| 20260901210533 | 67 | 0.0 | 1.0 | 0.00 | 0.00 | 0.00 | 71 | ||
| 20260901205551 | 67 | 0.0 | 1.0 | 0.00 | 0.00 | 0.00 | 70 | ||
| 20260901204529 | 68 | 0.0 | 1.0 | 0.00 | 0.00 | 0.00 | 70 | ||
| 20260901203527 | 68 | 30 | 0.0 | 2.0 | 0.00 | 0.00 | 0.00 | 70 | |
| 20260901202525 | 68 | 45 | 0.0 | 2.0 | 0.00 | 0.00 | 0.00 | 69 | |
| 20260901201523 | 68 | 0 | 1.0 | 2.0 | 0.00 | 0.00 | 0.00 | 67 | |
| 20260901200541 | 68 | 0.0 | 1.0 | 0.00 | 0.00 | 0.00 | 67 | ||
| 20260901195519 | 68 | 45 | 1.0 | 3.0 | 0.00 | 0.00 | 0.00 | 67 | |
| 20260901194537 | 68 | 45 | 2.0 | 2.0 | 0.00 | 0.00 | 0.00 | 66 | |
| 20260901193515 | 69 | 90 | 0.0 | 2.0 | 0.00 | 0.00 | 0.00 | 65 | |
| 20260901192633 | 69 | 65 | 1.0 | 3.0 | 0.00 | 0.00 | 0.00 | 65 | |
| 20260901191611 | 70 | 53 | 1.0 | 2.0 | 0.00 | 0.00 | 0.00 | 64 | |
| 20260901190610 | 70 | 49 | 1.0 | 3.0 | 0.00 | 0.00 | 0.00 | 62 | |
| 20260901185607 | 70 | 68 | 1.0 | 2.0 | 0.00 | 0.00 | 0.00 | 62 | |
| 20260901184605 | 70 | 30 | 2.0 | 3.0 | 0.00 | 0.00 | 0.00 | 61 | |
| 20260901183605 | 71 | 33 | 3.0 | 5.0 | 0.00 | 0.00 | 0.00 | 61 | |
| 20260901182601 | 71 | 33 | 2.0 | 4.0 | 0.00 | 0.00 | 0.00 | 60 | |
| 20260901181559 | 71 | 0 | 2.0 | 4.0 | 0.00 | 0.00 | 0.00 | 60 | |
| 20260901180557 | 72 | 45 | 2.0 | 4.0 | 0.00 | 0.00 | 0.00 | 58 | |
| 20260901175555 | 72 | 30 | 3.0 | 5.0 | 0.00 | 0.00 | 0.00 | 58 | |
| 20260901174553 | 72 | 60 | 3.0 | 7.0 | 0.00 | 0.00 | 0.00 | 58 | |
| 20260901173551 | 73 | 29 | 4.0 | 7.0 | 0.00 | 0.00 | 0.00 | 57 | |
| 20260901172549 | 73 | 316 | 3.0 | 6.0 | 0.00 | 0.00 | 0.00 | 56 | |
| 20260901171547 | 73 | 7 | 5.0 | 11.0 | 0.00 | 0.00 | 0.00 | 55 | |
| 20260901170545 | 75 | 41 | 4.0 | 8.0 | 0.00 | 0.00 | 0.00 | 52 | |
| 20260901165543 | 77 | 353 | 3.0 | 6.0 | 0.00 | 0.00 | 0.00 | 51 | |
| 20260901164541 | 75 | 66 | 5.0 | 8.0 | 0.00 | 0.00 | 0.00 | 52 | |
| 20260901163539 | 77 | 19 | 5.0 | 11.0 | 0.00 | 0.00 | 0.00 | 49 | |
| 20260901162537 | 77 | 353 | 6.0 | 12.0 | 0.00 | 0.00 | 0.00 | 48 | |
| 20260901161535 | 77 | 27 | 6.0 | 10.0 | 0.00 | 0.00 | 0.00 | 50 | |
| 20260901160535 | 78 | 270 | 6.0 | 9.0 | 0.00 | 0.00 | 0.00 | 46 | |
| 20260901155531 | 77 | 45 | 5.0 | 9.0 | 0.00 | 0.00 | 0.00 | 48 | |
| 20260901154530 | 77 | 33 | 5.0 | 9.0 | 0.00 | 0.00 | 0.00 | 47 | |
| 20260901153527 | 77 | 304 | 5.0 | 9.0 | 0.00 | 0.00 | 0.00 | 48 | |
| 20260901152546 | 77 | 26 | 8.0 | 11.0 | 0.00 | 0.00 | 0.00 | 46 | |
| 20260901151524 | 78 | 30 | 5.0 | 12.0 | 0.00 | 0.00 | 0.00 | 46 | |
| 20260901150522 | 77 | 54 | 5.0 | 10.0 | 0.00 | 0.00 | 0.00 | 47 | |
| 20260901145519 | 78 | 37 | 6.0 | 12.0 | 0.00 | 0.00 | 0.00 | 43 | |
| 20260901144518 | 79 | 21 | 5.0 | 8.0 | 0.00 | 0.00 | 0.00 | 41 | |
| 20260901143536 | 79 | 292 | 5.0 | 11.0 | 0.00 | 0.00 | 0.00 | 42 | |
| 20260901142614 | 79 | 43 | 4.0 | 8.0 | 0.00 | 0.00 | 0.00 | 42 | |
| 20260901141612 | 78 | 6 | 3.0 | 8.0 | 0.00 | 0.00 | 0.00 | 43 | |
| 20260901140611 | 78 | 0 | 2.0 | 3.0 | 0.00 | 0.00 | 0.00 | 43 | |
| 20260901135608 | 77 | 33 | 4.0 | 9.0 | 0.00 | 0.00 | 0.00 | 45 | |
| 20260901134606 | 79 | 55 | 5.0 | 12.0 | 0.00 | 0.00 | 0.00 | 41 | |
| 20260901133604 | 79 | 67 | 5.0 | 8.0 | 0.00 | 0.00 | 0.00 | 39 | |
| 20260901132622 | 78 | 40 | 2.0 | 5.0 | 0.00 | 0.00 | 0.00 | 42 | |
| 20260901131600 | 80 | 51 | 6.0 | 13.0 | 0.00 | 0.00 | 0.00 | 39 | |
| 20260901130558 | 78 | 49 | 4.0 | 7.0 | 0.00 | 0.00 | 0.00 | 41 | |
| 20260901125556 | 77 | 124 | 3.0 | 6.0 | 0.00 | 0.00 | 0.00 | 43 | |
| 20260901124554 | 81 | 33 | 4.0 | 10.0 | 0.00 | 0.00 | 0.00 | 34 | |
| 20260901123552 | 82 | 25 | 1.0 | 3.0 | 0.00 | 0.00 | 0.00 | 33 | |
| 20260901122550 | 80 | 121 | 2.0 | 5.0 | 0.00 | 0.00 | 0.00 | 36 | |
| 20260901121548 | 77 | 176 | 1.0 | 2.0 | 0.00 | 0.00 | 0.00 | 40 | |
| 20260901120606 | 77 | 90 | 2.0 | 4.0 | 0.00 | 0.00 | 0.00 | 41 | |
| 20260901115544 | 78 | 256 | 2.0 | 5.0 | 0.00 | 0.00 | 0.00 | 40 | |
| 20260901114542 | 77 | 6 | 1.0 | 3.0 | 0.00 | 0.00 | 0.00 | 42 | |
| 20260901113540 | 78 | 236 | 2.0 | 4.0 | 0.00 | 0.00 | 0.00 | 40 | |
| 20260901112538 | 80 | 216 | 2.0 | 4.0 | 0.00 | 0.00 | 0.00 | 34 | |
| 20260901111536 | 81 | 131 | 2.0 | 4.0 | 0.00 | 0.00 | 0.00 | 34 | |
| 20260901110554 | 80 | 332 | 1.0 | 4.0 | 0.00 | 0.00 | 0.00 | 37 | |
| 20260901105532 | 78 | 294 | 1.0 | 4.0 | 0.00 | 0.00 | 0.00 | 40 | |
| 20260901104530 | 78 | 91 | 1.0 | 3.0 | 0.00 | 0.00 | 0.00 | 41 | |
| 20260901103528 | 77 | 174 | 2.0 | 6.0 | 0.00 | 0.00 | 0.00 | 41 | |
| 20260901102526 | 77 | 114 | 1.0 | 4.0 | 0.00 | 0.00 | 0.00 | 42 | |
| 20260901101524 | 75 | 143 | 2.0 | 3.0 | 0.00 | 0.00 | 0.00 | 47 | |
| 20260901100522 | 73 | 90 | 2.0 | 4.0 | 0.00 | 0.00 | 0.00 | 49 | |
| 20260901095520 | 73 | 101 | 2.0 | 5.0 | 0.00 | 0.00 | 0.00 | 49 | |
| 20260901094518 | 73 | 82 | 1.0 | 3.0 | 0.00 | 0.00 | 0.00 | 49 | |
| 20260901093516 | 74 | 46 | 1.0 | 3.0 | 0.00 | 0.00 | 0.00 | 49 | |
| 20260901092634 | 75 | 44 | 3.0 | 7.0 | 0.00 | 0.00 | 0.00 | 48 | |
| 20260901091612 | 75 | 56 | 2.0 | 6.0 | 0.00 | 0.00 | 0.00 | 48 | |
| 20260901090610 | 75 | 60 | 1.0 | 4.0 | 0.00 | 0.00 | 0.00 | 53 | |
| 20260901085610 | 73 | 315 | 1.0 | 3.0 | 0.00 | 0.00 | 0.00 | 55 | |
| 20260901084608 | 72 | 327 | 1.0 | 3.0 | 0.00 | 0.00 | 0.00 | 59 | |
| 20260901083604 | 70 | 90 | 0.0 | 2.0 | 0.00 | 0.00 | 0.00 | 62 | |
| 20260901082602 | 68 | 45 | 1.0 | 2.0 | 0.00 | 0.00 | 0.00 | 69 | |
| 20260901081601 | 65 | 90 | 0.0 | 2.0 | 0.00 | 0.00 | 0.00 | 71 | |
| 20260901080618 | 65 | 90 | 1.0 | 2.0 | 0.00 | 0.00 | 0.00 | 73 | |
| 20260901075616 | 65 | 0.0 | 1.0 | 0.00 | 0.00 | 0.00 | 74 | ||
| 20260901074554 | 64 | 90 | 0.0 | 2.0 | 0.00 | 0.00 | 0.00 | 74 | |
| 20260901073613 | 63 | 0.0 | 0.0 | 0.00 | 0.00 | 0.00 | 74 | ||
| 20260901072611 | 62 | 62 | 1.0 | 4.0 | 0.00 | 0.00 | 0.00 | 76 | |
| 20260901071548 | 62 | 98 | 2.0 | 4.0 | 0.00 | 0.00 | 0.00 | 78 |